utcTime,localTime,pm25,nowcast
2022-09-09 15:00:00 +0000,2022-09-09 10:00:00 -0500,12.5,NA
2022-09-09 16:00:00 +0000,2022-09-09 11:00:00 -0500,13.5,13
2022-09-09 17:00:00 +0000,2022-09-09 12:00:00 -0500,12.9,12.9
2022-09-09 18:00:00 +0000,2022-09-09 13:00:00 -0500,13.2,13
2022-09-09 19:00:00 +0000,2022-09-09 14:00:00 -0500,12.1,12.8
2022-09-09 20:00:00 +0000,2022-09-09 15:00:00 -0500,12.3,12.7
2022-09-09 21:00:00 +0000,2022-09-09 16:00:00 -0500,12.3,12.6
2022-09-09 22:00:00 +0000,2022-09-09 17:00:00 -0500,14.3,12.9
2022-09-09 23:00:00 +0000,2022-09-09 18:00:00 -0500,12.4,12.8
2022-09-10 00:00:00 +0000,2022-09-09 19:00:00 -0500,10.7,12.2
2022-09-10 01:00:00 +0000,2022-09-09 20:00:00 -0500,9.4,11.1
2022-09-10 02:00:00 +0000,2022-09-09 21:00:00 -0500,7.7,9.3
2022-09-10 03:00:00 +0000,2022-09-09 22:00:00 -0500,6.9,8
2022-09-10 04:00:00 +0000,2022-09-09 23:00:00 -0500,7.4,7.7
2022-09-10 05:00:00 +0000,2022-09-10 00:00:00 -0500,8,7.8
2022-09-10 06:00:00 +0000,2022-09-10 01:00:00 -0500,7.6,7.7
2022-09-10 07:00:00 +0000,2022-09-10 02:00:00 -0500,7,7.3
2022-09-10 08:00:00 +0000,2022-09-10 03:00:00 -0500,8.4,7.8
2022-09-10 09:00:00 +0000,2022-09-10 04:00:00 -0500,8.2,8
2022-09-10 10:00:00 +0000,2022-09-10 05:00:00 -0500,7.5,7.7
2022-09-10 11:00:00 +0000,2022-09-10 06:00:00 -0500,8,7.8
2022-09-10 12:00:00 +0000,2022-09-10 07:00:00 -0500,9.6,8.3
2022-09-10 13:00:00 +0000,2022-09-10 08:00:00 -0500,9,8.5
2022-09-10 14:00:00 +0000,2022-09-10 09:00:00 -0500,8.8,8.6
2022-09-10 15:00:00 +0000,2022-09-10 10:00:00 -0500,8.1,8.4
2022-09-10 16:00:00 +0000,2022-09-10 11:00:00 -0500,8.6,8.5
2022-09-10 17:00:00 +0000,2022-09-10 12:00:00 -0500,6.1,7.6
2022-09-10 18:00:00 +0000,2022-09-10 13:00:00 -0500,5.1,6.3
2022-09-10 19:00:00 +0000,2022-09-10 14:00:00 -0500,3.5,4.8
2022-09-10 20:00:00 +0000,2022-09-10 15:00:00 -0500,4.8,4.8
2022-09-10 21:00:00 +0000,2022-09-10 16:00:00 -0500,5.1,4.9
2022-09-10 22:00:00 +0000,2022-09-10 17:00:00 -0500,4.3,4.6
2022-09-10 23:00:00 +0000,2022-09-10 18:00:00 -0500,4,4.3
2022-09-11 00:00:00 +0000,2022-09-10 19:00:00 -0500,4.1,4.2
2022-09-11 01:00:00 +0000,2022-09-10 20:00:00 -0500,5.5,4.8
2022-09-11 02:00:00 +0000,2022-09-10 21:00:00 -0500,6,5.4
2022-09-11 03:00:00 +0000,2022-09-10 22:00:00 -0500,5.6,5.5
2022-09-11 04:00:00 +0000,2022-09-10 23:00:00 -0500,7.7,6.6
2022-09-11 05:00:00 +0000,2022-09-11 00:00:00 -0500,4.8,5.7
2022-09-11 06:00:00 +0000,2022-09-11 01:00:00 -0500,4.8,5.2
2022-09-11 07:00:00 +0000,2022-09-11 02:00:00 -0500,5.4,5.3
2022-09-11 08:00:00 +0000,2022-09-11 03:00:00 -0500,6,5.6
2022-09-11 09:00:00 +0000,2022-09-11 04:00:00 -0500,5.6,5.6
2022-09-11 10:00:00 +0000,2022-09-11 05:00:00 -0500,6.8,6.1
2022-09-11 11:00:00 +0000,2022-09-11 06:00:00 -0500,7.4,6.7
2022-09-11 12:00:00 +0000,2022-09-11 07:00:00 -0500,9.1,7.8
2022-09-11 13:00:00 +0000,2022-09-11 08:00:00 -0500,9.3,8.5
2022-09-11 14:00:00 +0000,2022-09-11 09:00:00 -0500,7.2,7.9
2022-09-11 15:00:00 +0000,2022-09-11 10:00:00 -0500,6.1,7
2022-09-11 16:00:00 +0000,2022-09-11 11:00:00 -0500,8.2,7.5
2022-09-11 17:00:00 +0000,2022-09-11 12:00:00 -0500,9.2,8.3
2022-09-11 18:00:00 +0000,2022-09-11 13:00:00 -0500,8.6,8.4
2022-09-11 19:00:00 +0000,2022-09-11 14:00:00 -0500,10.4,9.3
2022-09-11 20:00:00 +0000,2022-09-11 15:00:00 -0500,8.9,9.1
2022-09-11 21:00:00 +0000,2022-09-11 16:00:00 -0500,9.4,9.2
2022-09-11 22:00:00 +0000,2022-09-11 17:00:00 -0500,4.8,7
2022-09-11 23:00:00 +0000,2022-09-11 18:00:00 -0500,2.9,4.9
2022-09-12 00:00:00 +0000,2022-09-11 19:00:00 -0500,3,3.9
2022-09-12 01:00:00 +0000,2022-09-11 20:00:00 -0500,4,3.9
2022-09-12 02:00:00 +0000,2022-09-11 21:00:00 -0500,3.8,3.8
2022-09-12 03:00:00 +0000,2022-09-11 22:00:00 -0500,2.8,3.3
2022-09-12 04:00:00 +0000,2022-09-11 23:00:00 -0500,3.5,3.4
2022-09-12 05:00:00 +0000,2022-09-12 00:00:00 -0500,4.1,3.7
2022-09-12 06:00:00 +0000,2022-09-12 01:00:00 -0500,4.1,3.9
2022-09-12 07:00:00 +0000,2022-09-12 02:00:00 -0500,4.5,4.2
2022-09-12 08:00:00 +0000,2022-09-12 03:00:00 -0500,5.2,4.7
2022-09-12 09:00:00 +0000,2022-09-12 04:00:00 -0500,6.1,5.4
2022-09-12 10:00:00 +0000,2022-09-12 05:00:00 -0500,5.6,5.5
2022-09-12 11:00:00 +0000,2022-09-12 06:00:00 -0500,8.2,6.8
2022-09-12 12:00:00 +0000,2022-09-12 07:00:00 -0500,9.9,8.3
2022-09-12 13:00:00 +0000,2022-09-12 08:00:00 -0500,7.8,8
2022-09-12 14:00:00 +0000,2022-09-12 09:00:00 -0500,7.6,7.8
2022-09-12 15:00:00 +0000,2022-09-12 10:00:00 -0500,5.6,6.7
2022-09-12 16:00:00 +0000,2022-09-12 11:00:00 -0500,1.1,3.9
2022-09-12 17:00:00 +0000,2022-09-12 12:00:00 -0500,4.3,4.1
2022-09-12 18:00:00 +0000,2022-09-12 13:00:00 -0500,2.8,3.4
2022-09-12 19:00:00 +0000,2022-09-12 14:00:00 -0500,3.2,3.3
2022-09-12 20:00:00 +0000,2022-09-12 15:00:00 -0500,6.7,5
2022-09-12 21:00:00 +0000,2022-09-12 16:00:00 -0500,6.2,5.6
2022-09-12 22:00:00 +0000,2022-09-12 17:00:00 -0500,4.8,5.2
2022-09-12 23:00:00 +0000,2022-09-12 18:00:00 -0500,6.8,6
2022-09-13 00:00:00 +0000,2022-09-12 19:00:00 -0500,12.2,9.1
2022-09-13 01:00:00 +0000,2022-09-12 20:00:00 -0500,14.8,11.9
2022-09-13 02:00:00 +0000,2022-09-12 21:00:00 -0500,26.6,19.2
2022-09-13 03:00:00 +0000,2022-09-12 22:00:00 -0500,15.7,17.4
2022-09-13 04:00:00 +0000,2022-09-12 23:00:00 -0500,13.6,15.5
2022-09-13 05:00:00 +0000,2022-09-13 00:00:00 -0500,10.5,13
2022-09-13 06:00:00 +0000,2022-09-13 01:00:00 -0500,9.5,11.2
2022-09-13 07:00:00 +0000,2022-09-13 02:00:00 -0500,21,16.1
2022-09-13 08:00:00 +0000,2022-09-13 03:00:00 -0500,19.4,17.7
2022-09-13 09:00:00 +0000,2022-09-13 04:00:00 -0500,15.4,16.5
2022-09-13 10:00:00 +0000,2022-09-13 05:00:00 -0500,12.2,14.3
2022-09-13 11:00:00 +0000,2022-09-13 06:00:00 -0500,10.8,12.5
2022-09-13 12:00:00 +0000,2022-09-13 07:00:00 -0500,10.8,11.6
2022-09-13 13:00:00 +0000,2022-09-13 08:00:00 -0500,9.9,10.7
2022-09-13 14:00:00 +0000,2022-09-13 09:00:00 -0500,NA,NA
2022-09-13 15:00:00 +0000,2022-09-13 10:00:00 -0500,0,3.5
2022-09-13 16:00:00 +0000,2022-09-13 11:00:00 -0500,6.2,5
2022-09-13 17:00:00 +0000,2022-09-13 12:00:00 -0500,5.4,5.2
2022-09-13 18:00:00 +0000,2022-09-13 13:00:00 -0500,4.4,4.8
2022-09-13 19:00:00 +0000,2022-09-13 14:00:00 -0500,3.9,4.3
2022-09-13 20:00:00 +0000,2022-09-13 15:00:00 -0500,5.4,4.8
2022-09-13 21:00:00 +0000,2022-09-13 16:00:00 -0500,6.2,5.5
2022-09-13 22:00:00 +0000,2022-09-13 17:00:00 -0500,6,5.7
2022-09-13 23:00:00 +0000,2022-09-13 18:00:00 -0500,4.9,5.3
2022-09-14 00:00:00 +0000,2022-09-13 19:00:00 -0500,8.7,7
2022-09-14 01:00:00 +0000,2022-09-13 20:00:00 -0500,11.8,9.4
2022-09-14 02:00:00 +0000,2022-09-13 21:00:00 -0500,12.7,11
2022-09-14 03:00:00 +0000,2022-09-13 22:00:00 -0500,16.4,13.7
2022-09-14 04:00:00 +0000,2022-09-13 23:00:00 -0500,15.8,14.7
2022-09-14 05:00:00 +0000,2022-09-14 00:00:00 -0500,16.7,15.7
2022-09-14 06:00:00 +0000,2022-09-14 01:00:00 -0500,16.1,15.9
2022-09-14 07:00:00 +0000,2022-09-14 02:00:00 -0500,14.3,15.1
2022-09-14 08:00:00 +0000,2022-09-14 03:00:00 -0500,12.4,13.7
2022-09-14 09:00:00 +0000,2022-09-14 04:00:00 -0500,11.5,12.6
2022-09-14 10:00:00 +0000,2022-09-14 05:00:00 -0500,11.9,12.2
2022-09-14 11:00:00 +0000,2022-09-14 06:00:00 -0500,10.3,11.3
2022-09-14 12:00:00 +0000,2022-09-14 07:00:00 -0500,10.6,11.3
2022-09-14 13:00:00 +0000,2022-09-14 08:00:00 -0500,16.5,13.2
2022-09-14 14:00:00 +0000,2022-09-14 09:00:00 -0500,14.2,13.6
2022-09-14 15:00:00 +0000,2022-09-14 10:00:00 -0500,13,13.3
2022-09-14 16:00:00 +0000,2022-09-14 11:00:00 -0500,11.6,12.7
2022-09-14 17:00:00 +0000,2022-09-14 12:00:00 -0500,9.5,11.3
2022-09-14 18:00:00 +0000,2022-09-14 13:00:00 -0500,8.6,9.9
2022-09-14 19:00:00 +0000,2022-09-14 14:00:00 -0500,9.6,9.7
2022-09-14 20:00:00 +0000,2022-09-14 15:00:00 -0500,11.3,10.4
2022-09-14 21:00:00 +0000,2022-09-14 16:00:00 -0500,11.6,11
2022-09-14 22:00:00 +0000,2022-09-14 17:00:00 -0500,7.2,9.1
2022-09-14 23:00:00 +0000,2022-09-14 18:00:00 -0500,6,7.5
2022-09-15 00:00:00 +0000,2022-09-14 19:00:00 -0500,7.2,7.3
2022-09-15 01:00:00 +0000,2022-09-14 20:00:00 -0500,8.8,8
2022-09-15 02:00:00 +0000,2022-09-14 21:00:00 -0500,8.9,8.4
2022-09-15 03:00:00 +0000,2022-09-14 22:00:00 -0500,8.9,8.6
2022-09-15 04:00:00 +0000,2022-09-14 23:00:00 -0500,11.4,9.9
2022-09-15 05:00:00 +0000,2022-09-15 00:00:00 -0500,12.3,11.1
2022-09-15 06:00:00 +0000,2022-09-15 01:00:00 -0500,10.9,11
2022-09-15 07:00:00 +0000,2022-09-15 02:00:00 -0500,10.2,10.6
2022-09-15 08:00:00 +0000,2022-09-15 03:00:00 -0500,9.1,9.8
2022-09-15 09:00:00 +0000,2022-09-15 04:00:00 -0500,8.7,9.2
2022-09-15 10:00:00 +0000,2022-09-15 05:00:00 -0500,9.1,9.1
2022-09-15 11:00:00 +0000,2022-09-15 06:00:00 -0500,8.9,9.1
2022-09-15 12:00:00 +0000,2022-09-15 07:00:00 -0500,10.2,9.5
2022-09-15 13:00:00 +0000,2022-09-15 08:00:00 -0500,8.9,9.3
2022-09-15 14:00:00 +0000,2022-09-15 09:00:00 -0500,10.6,9.7
2022-09-15 15:00:00 +0000,2022-09-15 10:00:00 -0500,9.1,9.5
2022-09-15 16:00:00 +0000,2022-09-15 11:00:00 -0500,8.3,9.1
2022-09-15 17:00:00 +0000,2022-09-15 12:00:00 -0500,6.9,8.2
2022-09-15 18:00:00 +0000,2022-09-15 13:00:00 -0500,5.2,6.5
2022-09-15 19:00:00 +0000,2022-09-15 14:00:00 -0500,13.7,10.1
2022-09-15 20:00:00 +0000,2022-09-15 15:00:00 -0500,14.1,12.1
2022-09-15 21:00:00 +0000,2022-09-15 16:00:00 -0500,9.9,11
2022-09-15 22:00:00 +0000,2022-09-15 17:00:00 -0500,7.1,9
2022-09-15 23:00:00 +0000,2022-09-15 18:00:00 -0500,4.8,6.9
2022-09-16 00:00:00 +0000,2022-09-15 19:00:00 -0500,15.7,11.3
2022-09-16 01:00:00 +0000,2022-09-15 20:00:00 -0500,11.1,11.2
2022-09-16 02:00:00 +0000,2022-09-15 21:00:00 -0500,6.6,8.9
2022-09-16 03:00:00 +0000,2022-09-15 22:00:00 -0500,7.8,8.3
2022-09-16 04:00:00 +0000,2022-09-15 23:00:00 -0500,8.5,8.4
2022-09-16 05:00:00 +0000,2022-09-16 00:00:00 -0500,8.8,8.6
2022-09-16 06:00:00 +0000,2022-09-16 01:00:00 -0500,9.7,9.1
2022-09-16 07:00:00 +0000,2022-09-16 02:00:00 -0500,8.9,9
2022-09-16 08:00:00 +0000,2022-09-16 03:00:00 -0500,9.5,9.2
2022-09-16 09:00:00 +0000,2022-09-16 04:00:00 -0500,9.4,9.3
2022-09-16 10:00:00 +0000,2022-09-16 05:00:00 -0500,10,9.6
2022-09-16 11:00:00 +0000,2022-09-16 06:00:00 -0500,10.4,10
2022-09-16 12:00:00 +0000,2022-09-16 07:00:00 -0500,12.8,11.3
2022-09-16 13:00:00 +0000,2022-09-16 08:00:00 -0500,17.5,14.4
2022-09-16 14:00:00 +0000,2022-09-16 09:00:00 -0500,15.1,14.7
2022-09-16 15:00:00 +0000,2022-09-16 10:00:00 -0500,12.3,13.5
2022-09-16 16:00:00 +0000,2022-09-16 11:00:00 -0500,10.7,12.1
2022-09-16 17:00:00 +0000,2022-09-16 12:00:00 -0500,8.9,10.5
2022-09-16 18:00:00 +0000,2022-09-16 13:00:00 -0500,9.1,9.8
2022-09-16 19:00:00 +0000,2022-09-16 14:00:00 -0500,10.5,10.1
2022-09-16 20:00:00 +0000,2022-09-16 15:00:00 -0500,11.5,10.8
2022-09-16 21:00:00 +0000,2022-09-16 16:00:00 -0500,10.7,10.7
2022-09-16 22:00:00 +0000,2022-09-16 17:00:00 -0500,11.3,11
2022-09-16 23:00:00 +0000,2022-09-16 18:00:00 -0500,11.9,11.4
2022-09-17 00:00:00 +0000,2022-09-16 19:00:00 -0500,12.6,12
2022-09-17 01:00:00 +0000,2022-09-16 20:00:00 -0500,13.3,12.4
2022-09-17 02:00:00 +0000,2022-09-16 21:00:00 -0500,12.8,12.4
2022-09-17 03:00:00 +0000,2022-09-16 22:00:00 -0500,13,12.6
2022-09-17 04:00:00 +0000,2022-09-16 23:00:00 -0500,12.9,12.7
2022-09-17 05:00:00 +0000,2022-09-17 00:00:00 -0500,12,12.4
2022-09-17 06:00:00 +0000,2022-09-17 01:00:00 -0500,12.5,12.4
2022-09-17 07:00:00 +0000,2022-09-17 02:00:00 -0500,11.2,12.1
2022-09-17 08:00:00 +0000,2022-09-17 03:00:00 -0500,12.5,12.2
2022-09-17 09:00:00 +0000,2022-09-17 04:00:00 -0500,12.5,12.3
2022-09-17 10:00:00 +0000,2022-09-17 05:00:00 -0500,12.2,12.3
2022-09-17 11:00:00 +0000,2022-09-17 06:00:00 -0500,13.3,12.5
2022-09-17 12:00:00 +0000,2022-09-17 07:00:00 -0500,14.2,12.9
2022-09-17 13:00:00 +0000,2022-09-17 08:00:00 -0500,13.3,12.9
2022-09-17 14:00:00 +0000,2022-09-17 09:00:00 -0500,13.3,13
2022-09-17 15:00:00 +0000,2022-09-17 10:00:00 -0500,12.3,12.8
2022-09-17 16:00:00 +0000,2022-09-17 11:00:00 -0500,11.4,12.5
2022-09-17 17:00:00 +0000,2022-09-17 12:00:00 -0500,11.3,12.2
2022-09-17 18:00:00 +0000,2022-09-17 13:00:00 -0500,9.4,11.1
2022-09-17 19:00:00 +0000,2022-09-17 14:00:00 -0500,10.1,10.7
2022-09-17 20:00:00 +0000,2022-09-17 15:00:00 -0500,10.6,10.7
2022-09-17 21:00:00 +0000,2022-09-17 16:00:00 -0500,11.2,10.8
2022-09-17 22:00:00 +0000,2022-09-17 17:00:00 -0500,11.3,11
2022-09-17 23:00:00 +0000,2022-09-17 18:00:00 -0500,12.8,11.6
2022-09-18 00:00:00 +0000,2022-09-17 19:00:00 -0500,15.8,13.3
2022-09-18 01:00:00 +0000,2022-09-17 20:00:00 -0500,15.4,14.2
2022-09-18 02:00:00 +0000,2022-09-17 21:00:00 -0500,12.7,13.5
2022-09-18 03:00:00 +0000,2022-09-17 22:00:00 -0500,13.1,13.3
2022-09-18 04:00:00 +0000,2022-09-17 23:00:00 -0500,13.9,13.6
2022-09-18 05:00:00 +0000,2022-09-18 00:00:00 -0500,13.3,13.4
2022-09-18 06:00:00 +0000,2022-09-18 01:00:00 -0500,15.2,14.1
2022-09-18 07:00:00 +0000,2022-09-18 02:00:00 -0500,15.8,14.6
2022-09-18 08:00:00 +0000,2022-09-18 03:00:00 -0500,16.1,15
2022-09-18 09:00:00 +0000,2022-09-18 04:00:00 -0500,14.3,14.8
2022-09-18 10:00:00 +0000,2022-09-18 05:00:00 -0500,14.8,14.7
2022-09-18 11:00:00 +0000,2022-09-18 06:00:00 -0500,15.6,14.9
2022-09-18 12:00:00 +0000,2022-09-18 07:00:00 -0500,16.5,15.3
2022-09-18 13:00:00 +0000,2022-09-18 08:00:00 -0500,16,15.5
2022-09-18 14:00:00 +0000,2022-09-18 09:00:00 -0500,14.5,15.2
2022-09-18 15:00:00 +0000,2022-09-18 10:00:00 -0500,14.2,15
2022-09-18 16:00:00 +0000,2022-09-18 11:00:00 -0500,6.4,10.5
2022-09-18 17:00:00 +0000,2022-09-18 12:00:00 -0500,9.8,10.1
2022-09-18 18:00:00 +0000,2022-09-18 13:00:00 -0500,10.4,10.2
2022-09-18 19:00:00 +0000,2022-09-18 14:00:00 -0500,10.4,10.3
2022-09-18 20:00:00 +0000,2022-09-18 15:00:00 -0500,10.4,10.3
2022-09-18 21:00:00 +0000,2022-09-18 16:00:00 -0500,9.1,9.7
2022-09-18 22:00:00 +0000,2022-09-18 17:00:00 -0500,10.6,10.1
2022-09-18 23:00:00 +0000,2022-09-18 18:00:00 -0500,10,10
2022-09-19 00:00:00 +0000,2022-09-18 19:00:00 -0500,11.8,10.9
2022-09-19 01:00:00 +0000,2022-09-18 20:00:00 -0500,13.7,12.3
2022-09-19 02:00:00 +0000,2022-09-18 21:00:00 -0500,13.5,12.9
2022-09-19 03:00:00 +0000,2022-09-18 22:00:00 -0500,13.9,13.4
2022-09-19 04:00:00 +0000,2022-09-18 23:00:00 -0500,14.3,13.4
2022-09-19 05:00:00 +0000,2022-09-19 00:00:00 -0500,15.2,14.2
2022-09-19 06:00:00 +0000,2022-09-19 01:00:00 -0500,14.8,14.4
2022-09-19 07:00:00 +0000,2022-09-19 02:00:00 -0500,14.5,14.4
2022-09-19 08:00:00 +0000,2022-09-19 03:00:00 -0500,15.4,14.8
2022-09-19 09:00:00 +0000,2022-09-19 04:00:00 -0500,15.8,15.1
2022-09-19 10:00:00 +0000,2022-09-19 05:00:00 -0500,16.6,15.7
2022-09-19 11:00:00 +0000,2022-09-19 06:00:00 -0500,17.6,16.2
2022-09-19 12:00:00 +0000,2022-09-19 07:00:00 -0500,18.9,16.9
2022-09-19 13:00:00 +0000,2022-09-19 08:00:00 -0500,16.6,16.8
2022-09-19 14:00:00 +0000,2022-09-19 09:00:00 -0500,14.5,16.1
2022-09-19 15:00:00 +0000,2022-09-19 10:00:00 -0500,NA,NA
